Location: Chavagnac
(44.3233°N, 4.1249°E)
Time: 12:39:26
(UTC+00:00)

Daily predictions for brighter satellites

Satellite Brightness Start Highest point End
(mag) Time Altitude Azimuth Time Altitude Azimuth Time Altitude Azimuth
NOSS 3-1 (C) 4.1 17:04:41 10° NNW 17:12:07 66° NE 17:20:45 10° SE
COSMO-SKYMED 1 3.4 17:10:47 10° NE 17:14:38 30° E 17:18:26 10° SSE
Cosmos 1937 Rocket 4.1 17:10:04 10° S 17:14:58 39° ESE 17:19:53 10° NE
Okean 1-7 Rocket 3.8 17:12:25 10° S 17:16:58 80° W 17:21:34 10° N
OE (NEXTSAT) 4.4 17:14:10 10° WNW 17:17:38 85° SSW 17:21:04 10° ESE
Aureole 3 2.6 17:14:51 10° N 17:17:52 58° E 17:20:48 10° SSE
USA 290 3.7 17:19:31 10° NNE 17:21:45 18° ENE 17:24:01 10° ESE
NOSS 2-1 (C) 3.0 17:19:32 10° SW 17:22:53 80° NW 17:26:19 10° NE
Cosmos 1833 Rocket 3.2 17:20:28 10° NNW 17:25:38 36° NE 17:30:47 10° ESE
H-2A R/B 3.0 17:23:39 10° ESE 17:27:45 25° ENE 17:31:55 10° N
Lacrosse 5 4.2 17:23:28 10° WNW 17:27:46 28° SW 17:32:01 10° S
Meteor 1-21 Rocket 4.2 17:23:01 10° S 17:28:32 80° E 17:34:09 10° NNE
NOSS 2-1 (D) 3.2 17:25:30 10° SW 17:28:50 67° NW 17:32:15 10° NNE
Cosmos 1939 Rocket 2.9 17:25:46 10° SSE 17:29:47 61° ENE 17:33:46 10° N
Helios 1A Rocket 4.4 17:27:38 10° ESE 17:30:21 17° ENE 17:33:04 10° NNE
Cosmos 2344 4.4 17:22:52 10° NW 17:31:56 59° NE 17:44:27 10° SE
H-2A R/B 2.3 17:27:33 10° N 17:31:56 73° WNW 17:36:10 10° SSW
Cosmos 1602 Rocket 3.6 17:28:30 10° S 17:32:46 58° E 17:37:05 10° NNE
Cosmos 44 3.9 17:28:03 10° SW 17:32:47 58° NW 17:37:53 10° NNE
USA 229 DEB 3.9 17:26:19 10° NNW 17:33:35 65° NE 17:41:13 10° SE
USA 229 3.9 17:26:25 10° NNW 17:33:41 65° NE 17:41:20 10° SE
Cosmos 2026 Rocket 4.2 17:28:10 10° SSE 17:33:59 47° E 17:39:57 10° NNE
CZ-3B R/B 2.4 17:32:06 10° NW 17:34:39 44° NE 17:41:34 10° ESE
Feng Yun 1-1 Rocket 4.3 17:29:45 10° SSE 17:35:07 60° ENE 17:40:40 10° N
SeaSat 1 4.2 17:31:17 10° N 17:35:27 28° NW 17:39:37 10° WSW
SJ 16-02 2.9 17:31:50 10° SW 17:35:54 37° WNW 17:40:00 10° N
CSL-04 DEB 4.4 17:32:29 10° NNE 17:36:35 66° ESE 17:40:33 10° S
Cosmos 2112 Rocket 4.0 17:33:15 10° NNW 17:38:30 90° NW 17:43:41 10° SSE
YAOGAN 1 3.4 17:35:34 10° SE 17:39:13 27° ENE 17:42:53 10° N
Cosmos 990 Rocket 4.1 17:34:05 10° SSW 17:39:17 81° WNW 17:44:30 10° NNE
Cosmos 1844 Rocket 4.0 17:35:54 10° SW 17:41:10 39° NW 17:46:27 10° NNE
H-2A R/B 4.1 17:37:20 10° SSW 17:41:12 39° W 17:45:16 10° NNW
Cosmos 1689 Rocket 3.6 17:41:34 15° ENE 17:42:25 17° E 17:44:24 10° SE
Aureole 3 Rocket 3.0 17:40:26 10° N 17:43:37 42° E 17:47:32 10° SSE
COSMOS 2406 3.3 17:39:26 10° NNW 17:45:09 57° ENE 17:50:48 10° SE
Cosmos 2082 Rocket 3.0 17:40:22 10° N 17:45:22 30° NE 17:50:20 10° ESE
Cosmos 1703 3.3 17:42:55 10° S 17:46:47 82° W 17:50:41 10° N
Cosmos 1825 Rocket 4.2 17:43:57 10° SSE 17:47:53 33° E 17:51:51 10° NNE
IRS-1C Rocket 4.1 17:43:31 10° SSE 17:48:38 57° ENE 17:53:47 10° N
X-37B 0.6 17:46:03 10° W 17:49:15 87° S 17:51:36 17° ESE
NOSS 3-1 (A) 4.1 17:41:47 10° NW 17:49:17 70° NE 17:57:59 10° SE
ISS -2.1 17:49:14 10° WNW 17:52:00 23° N 17:53:50 15° NE
Cosmos 1812 Rocket 3.5 17:48:30 10° N 17:52:54 83° E 17:57:14 10° S
Okean O Rocket 3.0 17:50:22 10° S 17:54:34 43° W 17:58:47 10° NNW
CZ-4 R/B 1.5 17:54:55 10° SSE 17:58:47 48° ENE 18:02:37 10° N
Iridium 4 Rocket 3.4 17:55:56 10° N 18:01:16 67° E 18:06:06 10° SSE
ERS-2 2.2 17:59:15 10° NNE 18:02:49 50° E 18:06:21 10° S
SKYMED 2 3.6 17:58:28 10° NNE 18:02:50 85° WNW 18:07:11 10° SSW
CSL-04 Rocket 4.2 17:58:24 10° SE 18:03:16 35° ENE 18:08:14 10° N
Okean-O 2.7 18:01:58 10° SSE 18:06:16 53° ENE 18:10:37 10° N
S3M 4.4 18:03:39 10° N 18:09:20 38° ENE 18:14:59 10° SE
Cosmos 1428 Rocket 4.5 18:03:16 10° S 18:09:34 86° E 18:15:56 10° N
USA 234 4.4 18:05:52 14° NE 18:10:18 29° N 18:15:46 10° WNW
Cosmos 1340 3.5 18:06:44 10° SSW 18:10:22 50° WNW 18:14:03 10° N
Cosmos 1346 Rocket 2.7 18:06:59 10° S 18:10:50 59° E 18:14:44 10° NNE
Cosmos 2278 Rocket 2.1 18:05:32 10° SSW 18:11:11 76° ESE 18:16:52 10° NNE
Cosmos 1655 Rocket 4.5 18:05:40 10° SSE 18:11:12 36° E 18:16:46 10° NNE
Cosmos 1953 Rocket 3.9 18:10:14 10° SSE 18:14:19 41° E 18:17:58 13° NNE
CZ-2C R/B 3.4 18:09:18 10° S 18:14:46 79° WSW 18:20:31 10° NNW
SWARM A 4.4 18:13:57 10° SSE 18:17:08 47° E 18:18:52 23° NNE
Cosmos 2292 Rocket 3.9 18:14:28 10° SSE 18:19:06 40° E 18:20:41 28° NE
Cosmos 1892 4.5 18:16:13 10° SSE 18:17:22 17° SE 18:17:22 17° SE
SAR-Lupe-4 3.4 18:17:50 15° NNE 18:20:45 69° ESE 18:24:18 10° S
Cosmos 44 Rocket 3.7 18:16:47 10° S 18:21:24 43° ESE 18:23:19 30° ENE
Cosmos 405 3.8 18:19:36 10° NNW 18:23:04 53° W 18:26:29 10° S
ARGOS 3.1 18:23:04 10° SSE 18:28:19 59° ENE 18:33:37 10° N
DMSP B5D1-3 4.4 18:24:29 10° NNE 18:29:34 63° ESE 18:34:38 10° S
Meteor 2-19 Rocket 4.5 18:24:16 10° S 18:30:27 84° W 18:36:39 10° N
Cosmos 1869 4.1 18:27:37 10° N 18:30:11 33° NNE 18:30:11 33° NNE
PSLV R/B 4.1 18:29:53 10° N 18:34:07 78° WNW 18:38:19 10° SSW
Cosmos 372 Rocket 4.0 18:29:38 10° SSW 18:34:51 81° WNW 18:39:57 11° NNE
SAR-Lupe-1 4.2 18:34:04 16° N 18:36:48 74° WNW 18:40:23 10° SSW
CZ-4B R/B 3.8 18:34:57 10° NNW 18:37:35 22° WNW 18:40:08 10° WSW
CZ-2C R/B 2.9 18:33:50 10° NNE 18:39:16 49° E 18:44:41 10° S
Cosmos 494 Rocket 4.3 18:37:35 10° N 18:42:29 42° ENE 18:42:29 42° ENE
Cosmos 2150 Rocket 3.9 18:39:00 10° S 18:44:04 62° ESE 18:45:58 37° NE
TRAILBLAZER 4.5 18:40:45 10° NNW 18:45:23 75° NE 18:46:35 49° SE
Cosmos 1048 Rocket 3.8 18:42:27 10° NNW 18:47:34 66° ENE 18:49:36 36° SE
Cosmos-2242 4.0 18:43:35 10° NNW 18:47:44 48° W 18:51:52 10° SSW
Cosmos 2297 4.1 18:46:32 10° S 18:51:23 42° ESE 18:51:23 42° ESE
SL-08 RB Rocket 3.5 18:59:18 62° SSE 19:00:02 82° ENE 19:04:33 10° N
CSL-04 Debris 4.3 18:56:49 10° S 19:02:11 73° WSW 19:07:36 10° NNW
Helios 1A Rocket 3.9 19:01:09 10° S 19:05:08 47° W 19:09:09 10° NNW
H-2A R/B 3.1 19:02:04 10° S 19:06:53 45° W 19:11:52 10° NNW
Cosmos 1125 Rocket 3.3 19:03:31 10° SSW 19:08:41 75° ESE 19:08:41 75° ESE
Cosmos 1809 Rocket 4.3 19:03:00 10° S 19:09:07 89° ESE 19:15:19 10° N
Cosmos 1833 Rocket 4.1 19:04:26 10° NW 19:09:33 36° WSW 19:14:37 10° S
Cosmos 2298 Rocket 4.2 19:06:05 10° SSW 19:11:24 72° WNW 19:13:35 36° N
Cosmos 2266 Rocket 3.8 19:07:02 10° S 19:13:17 86° E 19:19:28 10° N
NOSS 2-2 (C) 4.5 19:14:49 10° NNW 19:20:07 63° NE 19:20:07 63° NE
X-37B 3.6 19:22:54 10° W 19:23:54 17° WSW 19:23:54 17° WSW
Cosmos 1943 Rocket 4.0 19:21:51 10° S 19:23:18 18° S 19:23:18 18° S
ISS -0.7 19:26:20 10° NW 19:26:49 13° NW 19:26:49 13° NW
Cosmos 2082 Rocket 3.1 19:24:13 10° NW 19:29:40 47° WSW 19:33:42 18° S
CZ-4 R/B 4.5 19:31:50 10° SW 19:34:04 14° W 19:36:16 10° WNW
Cosmos 2315 Rocket 4.1 19:40:54 10° NNW 19:46:33 70° NW 19:46:33 70° NW
ATLAS 2AS CENTAUR R/B 4.4 19:43:27 10° NNW 19:48:21 21° NNE 19:48:21 21° NNE
USA 234 4.2 19:53:13 36° N 19:53:13 36° N 19:58:12 10° NW
Cosmos 2278 Rocket 4.4 19:51:43 10° W 19:55:54 21° NW 19:59:05 14° N
CZ-4C R/B 4.3 19:53:38 10° NNW 19:56:58 22° N 19:56:58 22° N
ATLAS 5 CENTAUR R/B 4.4 20:20:59 10° SW 20:39:15 59° SW 20:39:15 59° SW
